DW3201 Weather Reports


Display with metric or nautical units.
time (UTC)temp
F
wind
direction
speed
MPH
gust
MPH
rain 1hr
in
rain 24hr
in
rain mn
in
humidity
%
barometer
mb
20260506101554 33 0 0.0 0.0 0.00 0.00 0.00 89 1010.8
20260506100054 33 0 0.0 1.0 0.00 0.00 0.00 89 1010.9
20260506094556 34 286 0.0 1.0 0.00 0.00 0.00 86 1010.8
20260506093058 34 0 0.0 0.0 0.00 0.00 0.00 86 1011.1
20260506091556 35 0 0.0 0.0 0.00 0.00 0.00 85 1011.0
20260506090053 34 0 0.0 0.0 0.00 0.00 0.00 77 1011.0
20260506084550 34 0 0.0 0.0 0.00 0.00 0.00 84 1011.0
20260506083114 35 0 0.0 1.0 0.00 0.00 0.00 86 1010.8
20260506081554 36 0 0.0 0.0 0.00 0.00 0.00 85 1010.6
20260506073056 37 0 0.0 0.0 0.00 0.00 0.00 77 1010.4
20260506071557 38 0 0.0 0.0 0.00 0.00 0.00 79 1010.3
20260506070112 39 0 0.0 0.0 0.00 0.00 0.00 75 1010.4
20260506061601 40 0 0.0 1.0 0.00 0.00 0.00 60 1010.6
20260506050109 43 0 0.0 0.0 0.00 0.00 0.00 51 1010.7
20260506044601 43 0 0.0 0.0 0.00 0.00 0.00 50 1010.7
20260506043057 44 0 0.0 0.0 0.00 0.00 0.00 47 1010.7
20260506041602 45 0 0.0 1.0 0.00 0.00 0.00 45 1010.6
20260506040100 46 0 0.0 2.0 0.00 0.00 0.00 45 1010.4
20260506034559 46 0 0.0 3.0 0.00 0.00 0.00 45 1010.2
20260506033054 46 0 0.0 2.0 0.00 0.00 0.00 45 1010.2
20260506031600 47 0 0.0 2.0 0.00 0.00 0.00 45 1010.1
20260506030054 47 0 0.0 4.0 0.00 0.00 0.00 47 1010.0
20260506024600 47 288 0.0 1.0 0.00 0.00 0.00 48 1009.8
20260506023055 47 0 0.0 0.0 0.00 0.00 0.00 51 1009.7
20260506021551 47 0 0.0 0.0 0.00 0.00 0.00 49 1009.4
20260506020107 48 0 0.0 0.0 0.00 0.00 0.00 45 1009.2
20260506014608 49 0 0.0 0.0 0.00 0.00 0.00 43 1009.0
20260506013055 51 0 0.0 0.0 0.00 0.00 0.00 40 1008.7
20260506011617 52 0 0.0 1.0 0.00 0.00 0.00 38 1008.4
20260506010054 52 243 1.0 6.0 0.00 0.00 0.00 36 1008.3
20260506004603 53 283 0.0 5.0 0.00 0.00 0.00 36 1008.0
20260506003052 54 308 0.0 6.0 0.00 0.00 0.00 34 1007.8
20260506001556 54 0 1.0 5.0 0.00 0.00 0.00 33 1007.6
20260506000117 55 255 1.0 4.0 0.00 0.00 0.00 33 1007.5
20260505234554 55 292 1.0 5.0 0.00 0.00 0.00 32 1007.4
20260505233057 55 252 2.0 10.0 0.00 0.00 0.00 32 1007.3
20260505231559 56 0 1.0 9.0 0.00 0.00 0.00 30 1007.3
20260505230106 56 292 1.0 7.0 0.00 0.00 0.00 32 1007.3
20260505224557 57 0 3.0 9.0 0.00 0.00 0.00 29 1007.4
20260505223054 56 284 3.0 7.0 0.00 0.00 0.00 29 1007.4
20260505221559 56 281 5.0 9.0 0.00 0.00 0.00 28 1007.2
20260505220054 56 285 5.0 13.0 0.00 0.00 0.00 29 1007.1
20260505214553 56 288 8.0 18.0 0.00 0.00 0.00 28 1007.2
20260505213056 56 302 5.0 12.0 0.00 0.00 0.00 30 1007.3
20260505211555 57 278 2.0 11.0 0.00 0.00 0.00 29 1007.2
20260505210052 56 292 2.0 11.0 0.00 0.00 0.00 29 1007.2
20260505204600 57 290 2.0 12.0 0.00 0.00 0.00 30 1007.3
20260505203100 57 0 4.0 11.0 0.00 0.00 0.00 30 1007.4
20260505201553 56 285 5.0 16.0 0.00 0.00 0.00 32 1007.7
20260505200054 56 286 5.0 15.0 0.00 0.00 0.00 32 1007.7
20260505194609 55 291 7.0 19.0 0.00 0.00 0.00 32 1008.0
20260505193052 55 266 7.0 13.0 0.00 0.00 0.00 33 1008.1
20260505191606 55 207 4.0 15.0 0.00 0.00 0.00 33 1008.3
20260505190054 54 285 7.0 14.0 0.00 0.00 0.00 33 1008.3
20260505184553 54 295 6.0 14.0 0.00 0.00 0.00 33 1008.2
20260505183055 54 261 8.0 17.0 0.00 0.00 0.00 33 1007.9
20260505181552 54 284 7.0 12.0 0.00 0.00 0.00 33 1007.8
20260505180057 54 291 10.0 15.0 0.00 0.00 0.00 31 1007.6
20260505174554 55 284 8.0 14.0 0.00 0.00 0.00 30 1007.6
20260505173113 54 302 6.0 21.0 0.00 0.00 0.00 29 1007.7
20260505171618 54 297 5.0 15.0 0.00 0.00 0.00 31 1007.7
20260505170055 53 255 6.0 13.0 0.00 0.00 0.00 34 1007.7
20260505164558 53 269 6.0 14.0 0.00 0.00 0.00 32 1007.4
20260505163052 53 281 5.0 15.0 0.00 0.00 0.00 33 1007.4
20260505161555 53 293 4.0 13.0 0.00 0.00 0.00 36 1007.8
20260505153054 53 288 3.0 12.0 0.00 0.00 0.00 37 1007.4
20260505151555 53 278 4.0 16.0 0.00 0.00 0.00 38 1007.5
20260505150110 52 231 5.0 14.0 0.00 0.00 0.00 39 1007.4
20260505130111 49 276 3.0 7.0 0.00 0.00 0.00 43 1007.5
20260505124608 48 295 2.0 5.0 0.00 0.00 0.00 45 1007.4
20260505123105 47 259 2.0 7.0 0.00 0.00 0.00 46 1008.0
20260505121623 46 0 0.0 3.0 0.00 0.00 0.00 53 1007.2
20260505120054 45 261 1.0 5.0 0.00 0.00 0.00 54 1008.1
20260505114555 44 256 0.0 2.0 0.00 0.00 0.00 57 1006.9
20260505113105 44 0 0.0 0.0 0.00 0.00 0.00 59 1006.1
20260505111556 44 0 0.0 2.0 0.00 0.00 0.00 56 1006.0